Regional Weather Roundup
Issued by NWS

Home | Current Version | Previous Version | Text Only | Print | Product List | Glossary Off
Versions: 1 2 3 4 5 6 7 8 9 10 11 12 13 14 15 16 17 18 19 20 21 22 23 24 25 26 27 28 29 30 31 32 33 34 35 36 37 38 39 40 41 42 43 44 45 46 47 48

000
ASUS43 KDMX 240007
RWRIA

WEATHER ROUNDUP FOR IOWA
NATIONAL WEATHER SERVICE DES MOINES IA
700 PM CDT WED JUL 23 2014

NOTE: "FAIR" INDICATES FEW OR NO CLOUDS BELOW 12,000 FEET WITH NO
SIGNIFICANT WEATHER AND/OR OBSTRUCTIONS TO VISIBILITY.

* - THESE STATIONS ARE NOT NWS STATIONS...THUS NOT UNDER NWS
QUALITY CONTROL.  THEY ALSO DO NOT REPORT WEATHER SUCH
AS PRECIPITATION OR FOG.

IAZ001>003-012>014-020>022-031>034-043>046-240100-
   NORTHWEST IOWA

CITY           SKY/WX    TMP DP  RH WIND       PRES   REMARKS
CARROLL *      SUNNY     79  63  57 NE7       30.16S HX  80
CHEROKEE *     SUNNY     79  58  48 NE6       30.16F HX  80
DENISON *      SUNNY     79  61  53 NE5       30.15S HX  80
LE MARS *      SUNNY     79  59  50 VRB6      30.17F HX  80
ORANGE CITY *  SUNNY     81  55  41 E5        30.18F HX  80
SHELDON *      SUNNY     77  59  53 NE6       30.18S
SIOUX CITY     SUNNY     81  58  45 NE7       30.15F HX  81
6HR MIN TEMP:  80; 6HR MAX TEMP:  83;

SPENCER        SUNNY     80  59  48 NE7       30.18F HX  81
6HR MIN TEMP:  77; 6HR MAX TEMP:  83;

STORM LAKE *   SUNNY     77  63  61 E6        30.18F
$$

IAZ055>058-069>071-079>083-090>094-240100-
   SOUTHWEST IOWA

CITY           SKY/WX    TMP DP  RH WIND       PRES   REMARKS
ATLANTIC *     SUNNY     79  63  57 NE9       30.13F HX  80
AUDUBON *      SUNNY     81  68  65 NE7       30.17S HX  83
CLARINDA *     SUNNY     82  64  54 NE8       30.14S HX  84
COUNCIL BLFS * SUNNY     81  64  57 NE10      30.13F HX  82
CRESTON *      SUNNY     79  63  57 NE6G13    30.15S HX  80
HARLAN  *      SUNNY     79  63  57 NE9       30.18F HX  80
LAMONI         SUNNY     78  61  55 NE10      30.14S HX  80
6HR MIN TEMP:  78; 6HR MAX TEMP:  83;

RED OAK *      SUNNY     82  63  51 NE8       30.13F HX  83
SHENANDOAH *   SUNNY     82  64  54 NE9       30.13S HX  84
$$

IAZ047>049-059>061-072>074-084-240100-
   CENTRAL IOWA

CITY           SKY/WX    TMP DP  RH WIND       PRES   REMARKS
AMES           SUNNY     78  57  48 NE10      30.15F
6HR MIN TEMP:  77; 6HR MAX TEMP:  82;

ANKENY *       SUNNY     79  59  50 NE7       30.15S HX  80
CHARITON *     SUNNY     77  59  53 NE10      30.14F
DES MOINES     MOSUNNY   80  56  43 NE12      30.14F HX  80
6HR MIN TEMP:  80; 6HR MAX TEMP:  85;

GRINNELL*      MOSUNNY   75  57  53 NE7       30.16F
KNOXVILLE *    SUNNY     79  57  47 NE9       30.13F HX  80
MARSHALLTOWN   SUNNY     77  58  51 N7        30.15F
6HR MIN TEMP:  77; 6HR MAX TEMP:  82;

PELLA *        MOSUNNY   79  59  49 CALM      30.15F HX  80
PERRY *          N/A     79  59  50 NE7       30.16S HX  80
$$

IAZ004>006-015-016-023>025-035-036-240100-
   NORTH CENTRAL IOWA

CITY           SKY/WX    TMP DP  RH WIND       PRES   REMARKS
ALGONA *       SUNNY     79  59  50 N7        30.18F HX  80
CLARION *      SUNNY     79  57  47 N7        30.17F HX  80
ESTHERVILLE    SUNNY     77  57  50 N12       30.19F
6HR MIN TEMP:  75; 6HR MAX TEMP:  81;

FORT DODGE *   SUNNY     79  57  47 NE3       30.18S HX  80
MASON CITY     SUNNY     78  57  48 N9        30.18F
6HR MIN TEMP:  76; 6HR MAX TEMP:  81;

FOREST CITY *  SUNNY     77  55  47 N3        30.18F
IOWA FALLS *     N/A     77  55  47 NE6       30.17F
$$

IAZ007>011-017>019-026>030-037>042-050>054-066-240100-
   NORTHEAST IOWA

CITY           SKY/WX    TMP DP  RH WIND       PRES   REMARKS
CEDAR RAPIDS   SUNNY     77  56  48 N8        30.13F
6HR MIN TEMP:  75; 6HR MAX TEMP:  81;

CHARLES CITY * MOSUNNY   75  57  53 N5        30.17F
CLINTON *      SUNNY     75  57  53 NE7       30.16S
DECORAH *      SUNNY     75  57  53 N6        30.16S
DUBUQUE        SUNNY     75  57  53 N7        30.15S
6HR MIN TEMP:  73; 6HR MAX TEMP:  78;

MONTICELLO *   MOSUNNY   77  57  50 N7        30.14F
OELWEIN *      SUNNY     77  57  50 N6        30.16F
WATERLOO       SUNNY     78  55  44 NE8       30.14F
6HR MIN TEMP:  76; 6HR MAX TEMP:  82;

$$

IAZ064-065-067-068-078-240100-
   EAST CENTRAL IOWA

CITY           SKY/WX    TMP DP  RH WIND       PRES   REMARKS
DAVENPORT      SUNNY     76  57  51 NE10      30.13F
6HR MIN TEMP:  75; 6HR MAX TEMP:  79;

IOWA CITY      SUNNY     77  57  50 NE12      30.14F
6HR MIN TEMP:  77; 6HR MAX TEMP:  81;

MT. PLEASANT * SUNNY     76  56  48 NE7       30.13S
MUSCATINE *    SUNNY     77  57  50 NE10      30.13S
QUAD CITIES    SUNNY     77  54  44 N9        30.11F
6HR MIN TEMP:  77; 6HR MAX TEMP:  81;

$$

IAZ062-063-075>077-085>089-095>099-240100-
   SOUTHEAST IOWA

CITY           SKY/WX    TMP DP  RH WIND       PRES   REMARKS
BURLINGTON     SUNNY     77  57  50 NE14G21   30.12S
6HR MIN TEMP:  77; 6HR MAX TEMP:  80;

FAIRFIELD *    MOSUNNY   77  59  53 NE7       30.14S
FORT MADISON * SUNNY     77  57  50 N6        30.13S
KEOKUK *       MOSUNNY   77  59  53 NE10      30.11S
OSKALOOSA *      N/A     77  58  52 NE9       30.15S
CENTERVILLE *  MOSUNNY   75  59  57 NE7       30.16S
OTTUMWA        PTSUNNY   79  59  50 N6        30.14S HX  80
6HR MIN TEMP:  78; 6HR MAX TEMP:  82;

WASHINGTON *   SUNNY     75  59  57 N7G13     30.14R
$$

ABBREVIATIONS USED IN REMARKS
   TC - TEMPERATURES IN CELSIUS
  WCI - WIND CHILL INDEX
   HX - HEAT INDEX
  VSB - VISIBILITY
$$




USA.gov is the U.S. government's official web portal to all federal, state and local government web resources and services.